Location: Ash Shall?l al Awwal
(24.0167°N, 32.8667°E)
Time: 04:04:21
(UTC+00:00)

Lacrosse 5 rocket - Pass Details

Date: 02 March 2021
Orbit: 463 x 631 km, 57.0° (Epoch: 12 April)

Event Time Altitude Azimuth Distance (km) Brightness Sun altitude
Rises 16:55:43 0° 303° (WNW) 2,792 5.9 -15.4°
Reaches altitude 10° 16:58:45 10° 281° (W) 1,854 5.3 -16.1°
Maximum altitude 17:01:17 16° 244° (WSW) 1,485 4.4 -16.6°
Drops below altitude 10° 17:03:46 10° 206° (SSW) 1,784 4.2 -17.2°
Sets 17:06:36 0° 183° (S) 2,631 4.8 -17.9°
